Regional Weather Roundup
Issued by NWS Charleston, SC

Current Version | Previous Version | Graphics & Text | Print | Product List | Glossary On
Versions: 1 2 3 4 5 6 7 8 9 10 11 12 13 14 15 16 17 18 19 20 21 22 23 24 25 26 27 28 29 30 31 32 33 34 35 36 37 38 39 40 41 42 43 44 45 46 47 48 49 50
000
ASUS42 KCHS 051212
RWRCHS

REGIONAL WEATHER ROUNDUP
NATIONAL WEATHER SERVICE CHARLESTON SC
700 AM EST FRI FEB 05 2016

NOTE: "FAIR" INDICATES FEW OR NO CLOUDS BELOW 12,000 FEET WITH NO
SIGNIFICANT WEATHER AND/OR OBSTRUCTIONS TO VISIBILITY.

NOT ALL STATIONS ARE QUALITY CONTROLLED BY THE NATIONAL
WEATHER SERVICE. USE DATA WITH CAUTION...ESPECIALLY
DEWPOINT OBSERVATIONS.

NOTICE: OBSERVATIONS FOR THE SAVANNAH-HILTON HEAD INTERNATIONAL AIRPORT
/KSAV/ HAVE BEEN TEMPORARILY REMOVED DUE TO AN ERRONEOUS TEMPERATURE
SENSOR. THE OBSERVATION WILL BE REINTRODUCED ONCE REPAIRS ARE COMPLETE.

SCZ027-030-031-034>040-042>050-051300-
...SOUTHEAST SOUTH CAROLINA...

CITY           SKY/WX    TMP DP  RH WIND       PRES   REMARKS
N CHARLESTON   PTCLDY    46  31  55 N18       30.19R
6HR MIN TEMP:  45; 6HR MAX TEMP:  52;

WATERFRONT PRK   N/A     47  39  74 NW9       30.01R
MOUNT PLEASANT FAIR      46  37  71 NW10G17   30.18R
JOHNS ISLAND   FAIR      45  37  76 NW9       30.19R
PINOPOLIS        N/A     48  34  57 N24       30.10R
MONCKS CORNER  PTSUNNY   43  28  56 N9G24     30.20R
SUMMERVILLE    FAIR      45  36  70 N10       30.21R
BEAUFORT MCAS  CLEAR     41  30  65 NW12      30.22R
6HR MIN TEMP:  41; 6HR MAX TEMP:  48;

BEAUFORT ARPT  FAIR      41  32  70 NW15G22   30.21R
HILTON HEAD IS CLEAR     41  30  65 W9G17     30.23R
WALTERBORO     SUNNY     43  34  70 NW7       30.22R
ALLENDALE      FAIR      39  28  65 NW6       30.23R WCI  35

...SOUTHERN MIDLANDS AND PEE DEE...

CITY           SKY/WX    TMP DP  RH WIND       PRES   REMARKS
GEORGETOWN     NOT AVBL
KINGSTREE      NOT AVBL
ORANGEBURG     CLEAR     44  31  60 N8G23     30.23R
6HR MIN TEMP:  44; 6HR MAX TEMP:  48;

BARNWELL       FAIR      39  30  70 NW6       30.25R WCI  35
AIKEN          FAIR      34  27  75 NW6       30.28R WCI  29
MANNING        FAIR      43  30  61 N10       30.21R
COLUMBIA       CLEAR     42  30  62 N6        30.24R
6HR MIN TEMP:  42; 6HR MAX TEMP:  53; 6HR PCP: TRACE;

SUMTER         CLEAR     42  31  65 N13       30.20R
6HR MIN TEMP:  42; 6HR MAX TEMP:  51; 6HR PCP: TRACE;

FLORENCE       CLOUDY    41  33  73 N12       30.22R
6HR MIN TEMP:  40; 6HR MAX TEMP:  49; 6HR PCP:  0.01;

MYRTLE BEACH   NOT AVBL
N MYRTLE BEACH LGT RAIN  45  41  86 N12G17    30.16R
6HR MIN TEMP:  45; 6HR MAX TEMP:  54; 6HR PCP: TRACE;


$$

GAZ063-065-086>088-099>101-113>116-118-119-134>141-150-051300-
...SOUTHEAST GEORGIA...

CITY           SKY/WX    TMP DP  RH WIND       PRES   REMARKS
SAVANNAH ARPT  CLEAR     39  27  62 NW8       30.25R WCI  33
6HR MIN TEMP:  39; 6HR MAX TEMP:  47;

HUNTER AAF     CLEAR     39  28  64 NW13      30.22R WCI  32
6HR MIN TEMP:  39; 6HR MAX TEMP:  47;

FORT STEWART   CLEAR     38  26  60 NW8       30.25R WCI  32
6HR MIN TEMP:  38; 6HR MAX TEMP:  47; 6HR PCP:  0.01;

STATESBORO     CLEAR     40  24  51 NW10      30.26R WCI  34
SYLVANIA       SUNNY     39  31  72 NW10      30.26R WCI  32
CLAXTON        FAIR      38  29  68 W8        30.27R WCI  32

...CSRA...CENTRAL AND FAR SOUTHEAST GEORGIA...

CITY           SKY/WX    TMP DP  RH WIND       PRES   REMARKS
THOMSON        CLEAR     36  26  67 NW8       30.33R WCI  29
AUGUSTA-BUSH   CLEAR     37  24  59 N13       30.26R WCI  29
6HR MIN TEMP:  37; 6HR MAX TEMP:  44;

AUGUSTA-DANIEL CLEAR     38  22  52 NW10G18   30.27R WCI  31
SWAINSBORO     FAIR      34  25  69 NW8       30.28R WCI  27
VIDALIA        CLEAR     36  25  64 NW10      30.27R WCI  28
EASTMAN        FAIR      36  21  53 NW7       30.33R WCI  30
HAZLEHURST     FAIR      37  25  60 NW6       30.28S WCI  33
ALMA           CLEAR     36  24  62 NW9       30.29R WCI  29
6HR MIN TEMP:  36; 6HR MAX TEMP:  45;

WAYCROSS       CLOUDY    39  28  65 NW7       30.26R WCI  34
JESUP          FAIR      41  32  70 NW7       30.28R
BAXLEY         FAIR      37  25  60 NW8       30.28R WCI  31
BRUNSWICK      CLEAR     37  30  75 W5        30.28R WCI  34
SAINT SIMONS   CLEAR     39  29  67 NW7       30.26R WCI  34
6HR MIN TEMP:  39; 6HR MAX TEMP:  49;


$$

SCZ027-028-034-036>038-045-046-048>050-GAZ119-141-051300-
...LAKE AND SUPPLEMENTAL COASTAL OBSERVATIONS...

STATION/POSITION TIME  TEMP    WIND        PRES    WAVE   SWELL
                       AIR SEA DIR/SP/G            HT/PER HT/PER/DIR
                 (UTC) (F)     (DEG/KT/KT) (MB)    (FT/S) (FT/S/D)
WINYAH BAY       NOT AVBL
LAKE MURRAY      1100   40     340/  3/  5 1022.7R
ACE BASIN NERRS  NOT AVBL
FORT PULASKI     1100   42 55  300/ 20/ 24 1022.9R
SAPELO ISLAND    1100   42     310/ 12     1023.0R

$$

ANZ835-935-AMZ111-154-330-350-352-354-370-450-454-472-051300-
...C-MAN AND BUOY OBSERVATIONS...

STATION/POSITION TIME  TEMP    WIND        PRES    WAVE   SWELL
                       AIR SEA DIR/SP/G            HT/PER HT/PER/DIR
                 (UTC) (F)     (DEG/KT/KT) (MB)    (FT/S) (FT/S/D)
BUOY 41004       1150   52 68  320/ 23/ 29 1019.4R   7/ 6
BUOY 41008       1150   45 55  320/ 21/ 25 1023.3R   5/ 5
FOLLY BEACH CMAN 1100   45     300/ 11/ 15 1020.5R
CAPERS NEARSHORE 1108   48     310/ 19/ 25 1019.1R
FRIPP NEARSHORE  1100   46     320/ 23/ 25 1020.8R


STATION/POSITION TIME  TEMP    WIND        PRES    WAVE   SWELL
                       AIR SEA DIR/SP/G            HT/PER HT/PER/DIR
                 (UTC) (F)     (DEG/KT/KT) (MB)    (FT/S) (FT/S/D)
5E ST. MARYS GA  1121      59                N/A     4/ 5
FRYING PAN BUOY  1100   51 66  330/ 21/ 29 1016.9R
BUOY 41025       1150      70  340/ 31/ 39 1013.1R  10/ 8
CAPE LOOKOUT NC  NOT AVBL
BUOY 41002       1150   69 69  200/ 27/ 31   N/A     8/ 6   2/120/27
BUOY 41010       1120   66 74              1018.6S
ST AUGUSTINE FL  1200   42 59  320/ 13/ 16 1025.2R


$$



USA.gov is the U.S. government's official web portal to all federal, state and local government web resources and services.